Montichiari, Italy

9:18 PM CEST on July 28, 2016 (GMT +0200)
Montichiari

Weather History for LIPO - December, 2012

Change the Weather History Date:

Saturday, December 8, 2012

  Actual Average (LIPL) Record (LIPL)
Temperature  
Mean Temperature 26 °F -  
Max Temperature 32 °F 45 °F 55 °F (2006)
Min Temperature 15 °F 32 °F 19 °F (1998)
Degree Days  
Heating Degree Days 40    
Moisture  
Dew Point 28 °F    
Average Humidity 100    
Maximum Humidity 100    
Minimum Humidity 93    
Precipitation  
Precipitation 0.00 in - - ()
Sea Level Pressure  
Sea Level Pressure 29.79 in    
Wind  
Wind Speed 5 mph ()    
Max Wind Speed 14 mph    
Max Gust Speed -    
Visibility 0.6 miles    
Events Fog    
Averages and records for this station are not official NWS values.
T = Trace of Precipitation, MM = Missing Value Source: Averaged Metar Reports

Daily Weather History Graph

Daily Weather History Graph

Search for Another Location

Airport or City:

Trip Planner

Search our weather history database for the weather conditions in past years. The results will help you decide how hot, cold, wet, or windy it might be!

Date:

Astronomy

Dec. 08, 2012 Rise Set
Actual Time 7:45 AM CET 4:35 PM CET
Civil Twilight 7:11 AM CET 5:09 PM CET
Nautical Twilight 6:34 AM CET 5:46 PM CET
Astronomical Twilight 5:58 AM CET 6:22 PM CET
Moon 1:38 AM CET (12/8) 1:08 PM CET (12/8)
Length of Visible Light 9h 57m
Length of Day
8h 49m
Waning Crescent, 31% of the Moon is Illuminated
Dec 8
Waning Crescent
Dec 13
New
Dec 20
First Quarter
Dec 28
Full
Jan 5
Last Quarter

Hourly Weather History & Observations

Time (CET) Temp. Windchill Dew Point Humidity Pressure Visibility Wind Dir Wind Speed Gust Speed Precip Events Conditions
12:50 AM 30.2 °F 21.9 °F 30.2 °F 100% 29.68 in 1.6 mi West 9.2 mph - N/A   Mostly Cloudy
1:50 AM 32.0 °F 24.2 °F 32.0 °F 100% 29.68 in 1.6 mi WNW 9.2 mph - N/A   Mostly Cloudy
2:50 AM 32.0 °F 22.1 °F 32.0 °F 100% 29.65 in 1.6 mi WNW 13.8 mph - N/A   Mostly Cloudy
3:50 AM 32.0 °F 24.8 °F 32.0 °F 100% 29.62 in 1.6 mi WNW 8.1 mph - N/A   Mostly Cloudy
4:50 AM 30.2 °F 22.6 °F 30.2 °F 100% 29.62 in 1.6 mi West 8.1 mph - N/A   Mostly Cloudy
5:50 AM 30.2 °F 22.6 °F 30.2 °F 100% 29.62 in 1.6 mi West 8.1 mph - N/A   Mostly Cloudy
6:50 AM 30.2 °F 25.4 °F 30.2 °F 100% 29.65 in 0.9 mi West 4.6 mph - N/A   Mostly Cloudy
7:50 AM 28.4 °F 22.2 °F 28.4 °F 100% 29.68 in 0.6 mi West 5.8 mph - N/A   Mostly Cloudy
8:12 AM 28.4 °F 24.6 °F 28.4 °F 100% 29.68 in 0.3 mi WNW 3.5 mph - N/A Fog Light Freezing Fog
8:50 AM 28.4 °F 24.6 °F 28.4 °F 100% 29.71 in 0.2 mi NW 3.5 mph - N/A Fog Light Freezing Fog
9:50 AM 30.2 °F 25.4 °F 30.2 °F 100% 29.74 in 0.3 mi SW 4.6 mph - N/A Fog Light Freezing Fog
10:50 AM 30.2 °F 24.3 °F 30.2 °F 100% 29.74 in 0.1 mi West 5.8 mph - N/A Fog Light Freezing Fog
11:50 AM 32.0 °F - 32.0 °F 100% 29.77 in 0.2 mi Calm Calm - N/A Fog Fog
12:50 PM 30.2 °F 26.7 °F 30.2 °F 100% 29.77 in 0.3 mi West 3.5 mph - N/A Fog Light Freezing Fog
1:50 PM 32.0 °F 28.7 °F 30.2 °F 93% 29.80 in 0.2 mi NW 3.5 mph - N/A Fog Light Freezing Fog
2:50 PM 30.2 °F 26.7 °F 30.2 °F 100% 29.80 in 0.4 mi WSW 3.5 mph - N/A Fog Light Freezing Fog
3:50 PM 32.0 °F 26.4 °F 32.0 °F 100% 29.83 in 0.9 mi West 5.8 mph - N/A   Scattered Clouds
4:50 PM - - - N/A% 29.86 in 0.4 mi WSW 4.6 mph - N/A Fog Light Freezing Fog
5:50 PM 26.6 °F - 26.6 °F 100% 29.92 in 0.1 mi NNW 1.2 mph - N/A Fog Light Freezing Fog
6:50 PM 26.6 °F 21.2 °F 26.6 °F 100% 29.95 in 0.1 mi North 4.6 mph - N/A Fog Light Freezing Fog
7:50 PM 24.8 °F 19.1 °F 24.8 °F 100% 29.98 in 0.1 mi North 4.6 mph - N/A Fog Light Freezing Fog
8:50 PM 21.2 °F 16.4 °F 21.2 °F 100% 29.98 in 0.1 mi ENE 3.5 mph - N/A Fog Light Freezing Fog
9:50 PM 21.2 °F 16.4 °F 21.2 °F 100% 30.04 in 0.2 mi NW 3.5 mph - N/A Fog Light Freezing Fog
10:50 PM 19.4 °F - 19.4 °F 100% 30.04 in 0.1 mi Calm Calm - N/A Fog Light Freezing Fog
11:50 PM 15.8 °F - 15.8 °F 100% 30.06 in 0.1 mi Calm Calm - N/A Fog Light Freezing Fog